Weather History for Columbus AFB, MS

Change the Weather History Date:

Wednesday, January 15, 2014

  Actual Average Record
Temperature  
Mean Temperature 35 °F -  
Max Temperature 47 °F 51 °F 64 °F (1997)
Min Temperature 21 °F 32 °F 21 °F (2009)
Degree Days  
Heating Degree Days 30    
Moisture  
Dew Point 16 °F    
Average Humidity 41    
Maximum Humidity 75    
Minimum Humidity 25    
Precipitation  
Precipitation 0.00 in - - ()
Sea Level Pressure  
Sea Level Pressure 30.16 in    
Wind  
Wind Speed 12 mph (NW)    
Max Wind Speed 21 mph    
Max Gust Speed 25 mph    
Visibility 10 miles    
Events      
Averages and records for this station are not official NWS values.
T = Trace of Precipitation, MM = Missing Value Source: NWS Daily Summary

Daily Weather History Graph

Daily Weather History Graph

Search for Another Location

Airport:

Trip Planner

Search our weather history database for the weather conditions in past years. The results will help you decide how hot, cold, wet, or windy it might be!

Date:

Astronomy

Jan. 15, 2014 Rise Set
Actual Time 6:58 AM CST 5:08 PM CST
Civil Twilight 6:31 AM CST 5:35 PM CST
Nautical Twilight 6:00 AM CST 6:06 PM CST
Astronomical Twilight 5:30 AM CST 6:36 PM CST
Moon 5:03 PM CST (1/15) 6:16 AM CST (1/15)
Length of Visible Light 11h 04m
Length of Day
10h 10m
Full, 100% of the Moon is Illuminated
Jan 15
Full
Jan 15
Full
Jan 23
Last Quarter
Jan 30
New
Feb 6
First Quarter

Hourly Weather History & Observations

Time (CST) Temp. Windchill Dew Point Humidity Pressure Visibility Wind Dir Wind Speed Gust Speed Precip Events Conditions
12:58 AM 47.1 °F - 35.6 °F 64% 30.08 in 10.0 mi NNW 19.6 mph 25.3 mph N/A   Clear
1:58 AM 45.0 °F 40.6 °F 34.5 °F 67% 30.08 in 10.0 mi North 8.1 mph - 0.00 in   Clear
2:58 AM 44.4 °F 40.0 °F 34.3 °F 68% 30.09 in 10.0 mi NW 8.1 mph - N/A   Scattered Clouds
3:58 AM 44.8 °F 37.7 °F 22.5 °F 41% 30.11 in 10.0 mi NNW 16.1 mph - N/A   Partly Cloudy
4:58 AM 43.2 °F 35.9 °F 16.0 °F 33% 30.14 in 10.0 mi NNW 15.0 mph - N/A   Mostly Cloudy
5:58 AM 41.2 °F 38.2 °F 16.0 °F 36% 30.15 in 10.0 mi NNW 4.6 mph - N/A   Partly Cloudy
6:58 AM 38.5 °F 32.1 °F 15.6 °F 39% 30.17 in 10.0 mi NW 9.2 mph - N/A   Clear
7:58 AM 37.8 °F 34.2 °F 16.7 °F 42% 30.19 in 10.0 mi NW 4.6 mph - N/A   Clear
8:58 AM 41.9 °F 36.3 °F 16.5 °F 36% 30.20 in 10.0 mi NNW 9.2 mph - N/A   Clear
9:58 AM 43.9 °F 37.2 °F 12.0 °F 27% 30.21 in 10.0 mi NW 13.8 mph - N/A   Clear
10:58 AM 44.6 °F 38.4 °F 10.6 °F 25% 30.19 in 10.0 mi WNW 12.7 mph - N/A   Clear
11:58 AM 44.4 °F 37.9 °F 12.4 °F 27% 30.16 in 10.0 mi West 13.8 mph 21.9 mph N/A   Clear
12:58 PM 44.8 °F 38.7 °F 13.1 °F 28% 30.13 in 10.0 mi WNW 12.7 mph - N/A   Clear
12:59 PM 44.6 °F 38.1 °F 12.2 °F 27% 30.12 in 10.0 mi West 13.8 mph - N/A   Clear
1:58 PM 44.4 °F 36.6 °F 14.4 °F 30% 30.12 in 10.0 mi NW 18.4 mph - N/A   Clear
2:42 PM 44.6 °F 37.2 °F 14.0 °F 29% 30.11 in 10.0 mi NW 17.3 mph 23.0 mph N/A   Partly Cloudy
2:58 PM 44.1 °F 35.7 °F 12.7 °F 28% 30.13 in 10.0 mi WNW 20.7 mph - N/A   Mostly Cloudy
3:58 PM 41.5 °F 33.2 °F 12.2 °F 30% 30.15 in 10.0 mi NW 17.3 mph - N/A   Partly Cloudy
4:58 PM 38.7 °F 29.8 °F 9.7 °F 30% 30.17 in 10.0 mi WNW 16.1 mph - N/A   Clear
5:58 PM 34.7 °F 26.9 °F 8.8 °F 34% 30.19 in 10.0 mi WNW 10.4 mph - N/A   Clear
6:58 PM 32.7 °F 25.7 °F 10.2 °F 39% 30.22 in 10.0 mi WNW 8.1 mph - N/A   Clear
7:58 PM 32.2 °F 23.8 °F 11.3 °F 42% 30.23 in 10.0 mi NW 10.4 mph - N/A   Clear
8:58 PM 29.1 °F 24.1 °F 12.9 °F 51% 30.23 in 10.0 mi NW 4.6 mph - N/A   Clear
9:58 PM 28.0 °F - 14.2 °F 56% 30.22 in 10.0 mi North 1.2 mph - N/A   Clear
10:58 PM 23.0 °F - 15.3 °F 72% 30.21 in 10.0 mi Calm Calm - N/A   Clear
11:58 PM 21.9 °F - 15.1 °F 75% 30.17 in 10.0 mi Calm Calm - N/A   Clear